www.pogodaiklimat.ru

Погода и климат >> Архив погоды >> Россия >> Чукотка >> Анадырь


АРХИВ ПОГОДЫ в Анадыре

Время (UTC), дата Ветер
(напр.,м/с)
 
Видим.   Явления Облачность Т
(С)
Тd
(С)
f
(%)
Тe
(С)
Тes
(С)
Комфортность P
(гПа)
Po
(гПа)
Тmin
(С)
Tmax
(С)
R
(мм)
R24
(мм)
S
(см)
12 10.11 С 14-17
{23}
1000 м слабый ливневой снег {метель} 10/10 300 м
[Cb cap]
-4.3 -6.2 87 -15 -15 по сезону 1021.2 1013.3
15 10.11 СВ 10-13
{18}
50 км {ливн. осадки, метель} 9/9 600 м
[Cb cap]
-4.8 -7.6 81 -14 -14 по сезону 1024.7 1016.7
18 10.11 С 10-12
{15}
50 км {ливн. осадки, метель} 8/5 600 м
[Cb cap Ac trans]
-5.9 -9.4 76 -16 -16 по сезону 1027.1 1019.1 -5.9 2 12
21 10.11 С 10-11
{12}
50 км 9/8 600 м
[Cb cap Ac trans]
-7.0 -10.3 77 -17 -17 по сезону 1028.8 1021.8 -7.1
00 11.11 С 9-11
{12}
50 км 9/8 600 м
[Cb cap Ac trans]
-6.7 -9.5 80 -16 -16 по сезону 1031.9 1023.9
03 11.11 СЗ 5
{11}
50 км 9/6 600 м
[Cb cap Ac trans]
-6.6 -9.0 83 -14 -14 по сезону 1033.8 1025.8
06 11.11 СЗ 6
{8}
50 км 8/3 600 м
[Sc Ac trans]
-8.3 -10.2 86 -17 -17 по сезону 1035.6 1027.4 -5.9
09 11.11 СЗ 8-10
{10}
50 км 9/6 600 м
[Sc Ac trans]
-9.3 -11.4 85 -19 -19 по сезону 1036.6 1028.4
12 11.11 СЗ 10-12
{12}
50 км 9/3 600 м
[Sc Ac trans]
-10.2 -13.0 80 -21 -21 по сезону 1037.0 1028.8
15 11.11 С 8-10
{12}
50 км 9/5 600 м
[Sc Ac trans]
-12.0 -14.7 80 -22 -22 по сезону 1037.5 1029.3
18 11.11 С 6
{10}
50 км 8/3 600 м
[Sc Ac trans]
-13.9 -16.6 80 -23 -23 по сезону 1038.1 1029.8 -13.9 12
21 11.11 СЗ 8
{9}
50 км 3/3 600 м
[Sc]
-16.0 -17.9 85 -27 -27 холодно 1038.8 1030.5 -16.3
00 12.11 СЗ 7
{10}
50 км 3/1 600 м
[Sc Ci fib]
-16.6 -18.5 85 -27 -27 холодно 1038.8 1030.5
03 12.11 СЗ 8
{10}
20 км слабый ливневой снег 3/3 600 м
[Cb cap]
-16.2 -18.1 85 -27 -27 прохладно 1038.6 1030.3
06 12.11 СЗ 9-10
{11}
50 км {ливн. осадки} 3/3 300 м
[Sc]
-15.6 -17.5 85 -27 -27 прохладно 1038.6 1030.3 -13.9 0.0
09 12.11 СЗ 6
{11}
8000 м туман на расстоянии 3/3 300 м
[Sc]
-17.1 -19.7 80 -27 -27 прохладно 1039.1 1030.8
12 12.11 СЗ 7
{10}
6000 м туман на расстоянии 1/1 600 м
[Sc]
-17.7 -20.3 80 -29 -29 холодно 1038.4 1029.9
15 12.11 СЗ 6
{8}
50 км 3/3 300 м
[Sc]
-18.3 -20.9 80 -29 -29 холодно 1038.2 1029.7
18 12.11 С 7
{8}
50 км 1/0
[Ac trans]
-19.4 -22.0 80 -31 -31 опасность
обморожения
1037.2 1028.7 -19.7 12
21 12.11 С 7
{9}
6000 м туман на расстоянии ясно -19.7 -22.3 80 -31 -31 опасность
обморожения
1036.8 1028.3 -20.1
00 13.11 СЗ 7
{9}
5000 м туман на расстоянии {метель} 6/3 300 м
[St Ci fib]
-19.8 -22.4 80 -31 -31 опасность
обморожения
1035.4 1026.9
03 13.11 С 6
{10}
7000 м туман на расстоянии {снег} 8/3 300 м
[St Ci fib]
-20.8 -23.3 80 -32 -32 опасность
обморожения
1034.8 1026.3
06 13.11 С 7
{10}
20 км {снег} 3/1 300 м
[St Ci fib]
-21.7 -24.2 80 -34 -34 опасность
обморожения
1034.1 1025.6 -18.8 0.0
09 13.11 С 9-10
{10}
20 км 5/3 300 м
[St Ci fib]
-22.4 -24.9 80 -36 -36 опасность
обморожения
1033.9 1025.4
12 13.11 СЗ 6
{10}
20 км 3/0
[Ci fib]
-23.9 -27.1 75 -36 -36 опасность
обморожения
1034.2 1025.5
15 13.11 СЗ 8
{11}
50 км 3/0
[Ci fib]
-22.0 -24.5 80 -35 -35 опасность
обморожения
1033.2 1024.8
18 13.11 СЗ 8
{10}
50 км 9/0
[Ac trans Cs]
-21.1 -23.6 80 -34 -34 опасность
обморожения
1033.1 1024.7 -24.2 13
21 13.11 СЗ 6
{9}
50 км 3/3 600 м
[Sc]
-21.3 -23.8 80 -33 -33 опасность
обморожения
1033.1 1024.7
00 14.11 СЗ 6
{9}
6000 м туман на расстоянии ясно -21.8 -24.3 80 -33 -33 опасность
обморожения
1032.7 1024.3
03 14.11 СЗ 5
{8}
8000 м туман на расстоянии 1/1 600 м
[Sc]
-21.7 -24.2 80 -32 -32 опасность
обморожения
1032.1 1023.7
06 14.11 СЗ 6
{7}
50 км 3/3 600 м
[Sc]
-21.4 -23.9 80 -33 -33 опасность
обморожения
1031.9 1023.5 -20.7
09 14.11 СЗ 5
{6}
50 км ясно -22.5 -25.0 80 -33 -33 опасность
обморожения
1031.5 1023.1
12 14.11 СЗ 5
{7}
50 км ясно -23.0 -26.3 74 -34 -34 опасность
обморожения
1030.7 1022.1
15 14.11 СЗ 5
{7}
50 км 4/0
[Ci fib]
-22.8 -25.3 80 -34 -34 опасность
обморожения
1029.7 1021.1
18 14.11 СЗ 5
{6}
50 км 3/0
[Ci fib]
-21.7 -24.2 80 -32 -32 опасность
обморожения
1028.9 1020.5 -23.2 13
21 14.11 СЗ 5
{6}
7000 м туман на расстоянии ясно -22.5 -25.0 80 -33 -33 опасность
обморожения
1028.1 1019.7
00 15.11 СЗ 5
{7}
50 км 3/0
[Ci fib]
-22.8 -26.0 75 -34 -33 опасность
обморожения
1027.4 1018.8
03 15.11 СЗ 6
{7}
50 км 1/0
[Ci fib]
-24.4 -27.6 75 -37 -37 опасность
обморожения
1026.5 1017.9
06 15.11 СЗ 6
{8}
50 км ясно -24.6 -27.7 75 -37 -37 опасность
обморожения
1026.1 1017.5 -21.4
09 15.11 СЗ 5
{8}
50 км ясно -24.8 -28.0 75 -36 -36 опасность
обморожения
1026.0 1017.4
12 15.11 СЗ 6
{8}
50 км ясно -24.3 -27.5 75 -36 -36 опасность
обморожения
1024.7 1016.1
15 15.11 СЗ 7
{9}
50 км 3/0
[Ci fib]
-25.6 -28.8 74 -39 -39 опасность
обморожения
1024.3 1015.7
18 15.11 СЗ 7
{9}
50 км ясно -25.5 -28.6 75 -39 -39 опасность
обморожения
1022.8 1014.3 -25.8 13
21 15.11 СЗ 7
{9}
50 км 9/3 600 м
[Sc Ac trans]
-24.8 -27.3 80 -38 -38 опасность
обморожения
1022.1 1013.6
00 16.11 СЗ 9
{10}
6000 м туман на расстоянии 9/8 600 м
[Cb cap Ac trans]
-23.3 -26.5 75 -37 -37 опасность
обморожения
1020.3 1011.8
03 16.11 СЗ 8-10
{10}
8000 м туман на расстоянии {ливн. осадки, метель} 9/6 600 м
[Cb cap Ac trans Ci fib]
-20.5 -23.0 80 -33 -33 опасность
обморожения
1018.7 1010.4
06 16.11 СЗ 6
{13}
9000 м туман на расстоянии {ливн. осадки, метель} 9/8 600 м
[Sc Ac trans]
-17.4 -19.3 85 -28 -28 прохладно 1018.4 1010.2 -17.4 1
09 16.11 С 5
{10}
50 км 9/8 600 м
[Sc Ac trans]
-7.8 -16.3 50 -15 -15 тепло 1016.6 1008.6
12 16.11 С 6
{11}
50 км 3/1 600 м
[Sc Ac trans]
-12.3 -14.3 85 -21 -21 по сезону 1015.2 1007.2
15 16.11 С 8-10
{12}
50 км позёмок {метель} 8/5 600 м
[Sc Ac trans]
-11.0 -13.8 80 -21 -21 по сезону 1013.2 1005.2
18 16.11 СЗ 6
{11}
50 км {метель} 3/3 600 м
[Sc Ac trans]
-15.0 -17.7 80 -25 -25 по сезону 1013.0 1004.9 -18.7 13
21 16.11 СЗ 8-10
{10}
50 км позёмок {метель} 9/6 600 м
[Cb cap Ac trans Ci fib]
-15.7 -18.4 80 -27 -27 прохладно 1012.6 1004.5
00 17.11 СЗ 7
{10}
50 км {метель} 9/9 600 м
[Cb cap]
-14.2 -16.2 85 -24 -24 по сезону 1011.7 1003.6
03 17.11 СЗ 8-10
{10}
50 км 9/9 600 м
[Cb cap]
-13.6 -15.6 85 -24 -24 по сезону 1010.5 1002.4
06 17.11 СЗ 9-10
{11}
20 км слабый ливневой снег {метель} 10/10 300 м
[Cb cap]
-12.8 -14.8 85 -24 -24 по сезону 1009.6 1001.5 -12.8 0.0

 

Местоположение метеостанции Анадырь (Чукотка, Россия): широта 64.78 долгота 177.50 высота над уровнем моря 61 м.

В архиве по умолчанию представлена погода в Анадыре за последнюю неделю. Архивные данные за месяц целиком и за предыдущие месяцы, начиная с января 2011 года, Вы можете получить, выбрав интересующий диапазон дат из раскрывающегося списка и нажав кнопку "Ввод!".


*Определитесь, кто Вы:
робот инопланетянин человек

Внимание! Время в таблицах - всемирное. Для получения местного времени необходимо прибавить поправку, которая в Анадыре равна 12 ч.

Смотрите также архив погоды в соседних городах и на ближайших метеорологических станциях:

Погода в Анадыре АМС (Чукотка, Россия) (7 км)
Погода в Канчалане (Чукотка, Россия) (58 км)
Погода в Танюрере (Чукотка, Россия) (147 км)
Погода в Эньмувееме (Чукотка, Россия) (263 км)
Погода в Маркове (Чукотка, Россия) (337 км)
Погода в Майской (Чукотка, Россия) (457 км)
Погода в Слаутном (Камчатский край, Россия) (504 км)
Погода в Паляваам-Глубокой (Чукотка, Россия) (505 км)
Погода в Илирнее (Чукотка, Россия) (513 км)
Погода в Комсомольской (Чукотка, Россия) (525 км)

Пояснения к столбцам:

Ветер - указаны скорость ветра в м/с - средняя за 10 мин, порывы в срок и между сроками (в фигурных скобках) и направление, откуда дует ветер: С - северный, СВ - северо-восточный, В - восточный, ЮВ - юго-восточный, Ю - южный, ЮЗ - юго-западный, З - западный, СЗ - северо-западный.
Видимость - горизонтальная дальность видимости в метрах или километрах. При видимости от 1 до 10 км при отсутствии осадков обычно наблюдается дымка, при ухудшении видимости до 1 км и менее - туман. В сухую погоду видимость может ухудшаться дымом, пылью или мглою.
Явления - указаны атмосферные явления, наблюдавшиеся в срок или в последний час перед сроком; фигурными скобками обозначены явления, наблюдавшиеся между сроками (за 1-3 часа до срока); квадратными скобками обозначены град или гололедные отложения с указанием их диаметра в мм.
Облачность - указаны через наклонную черту общая и нижняя облачность в баллах и высота нижней границы облаков в метрах; квадратными скобками обозначены формы облаков: Ci - перистые, Cs - перисто-слоистые, Cc - перисто-кучевые, Ac - высококучевые, As - высокослоистые, Sc - слоисто-кучевые, Ns - слоисто-дождевые, Cu - кучевые, Cb - кучево-дождевые. Подробнее классификацию облаков см. в Атласе облаков (PDF).
T - Температура воздуха - температура, измеренная на высоте 2 м над землей.
Td - Температура точки росы - температура, при понижении до которой содержащийся в воздухе водяной пар достигнет насыщения.
f - Относительная влажность воздуха - влажноcть воздуха, измеренная на высоте 2 м над землей.
Te - Эффективная температура - температура, которую ощущает одетый по сезону человек в тени. Характеристика душности погоды. При расчете учитывается влияние влажности воздуха и скорости ветра на теплоощущения человека.
Tes - Эффективная температура на солнце - температура, которую ощущает человек, с поправкой на солнечный нагрев. Характеристика знойности погоды. Зависит от высоты солнца над горизонтом, облачности и скорости ветра. Ночью, в пасмурную погоду, а также при ветре 12 м/с и более поправка равна нулю.
P - Атмосферное давление - приведенное к уровню моря атмосферное давление.
Po - Атмосферное давление - измеренное на уровне метеостанции атмосферное давление.
Tmin - Минимальная температура - минимум температуры воздуха на высоте 2 м над землей.
Tmax - Максимальная температура - максимум температуры воздуха на высоте 2 м над землей.
R - Количество осадков - Количество выпавших осадков за период времени, мм. При наведении курсора мыши на число - период времени, за который выпало указанное количество осадков.
R24 - Количество осадков - Количество выпавших осадков за 24 часа, мм.
S - Снежный покров - Высота снежного покрова, см. При наведении курсора мыши на число - состояние снежного покрова и степень покрытия местности в баллах.